AirNav   Air Wisconsin pilot careers
 
 810 users online  

2PA2 Hillview Airport
Auburn, Pennsylvania, USA

GOING TO AUBURN?


FAA INFORMATION EFFECTIVE 13 SEPTEMBER 2018

Location

FAA Identifier: 2PA2
Lat/Long: 40-35-54.9600N / 076-08-13.0200W
40-35.916000N / 076-08.217000W
40.5986000 / -76.1369500
(estimated)
Elevation: 780 ft. / 238 m (estimated)
From city: 2 miles W of AUBURN, PA
Time zone: UTC -4 (UTC -5 during Standard Time)
Zip code: 17922

Airport Operations

Airport use: Private use. Permission required prior to landing
Activation date: 08/2012
Control tower: no
ARTCC: NEW YORK CENTER
FSS: WILLIAMSPORT FLIGHT SERVICE STATION
Attendance: UNATNDD
Segmented circle: no

Airport Communications

WX AWOS-3 at ZER (13 nm NW): 127.575 (570-544-2778)
WX ASOS at RDG (15 nm SE): PHONE 610-372-9863

Nearby radio navigation aids

VOR radial/distance  VOR name  Freq  Var
ETXr282/20.7EAST TEXAS VOR/DME110.2009W
RAVr094/21.2RAVINE VORTAC114.6011W
LRPr023/29.6LANCASTER VOR/DME117.3009W
FJCr266/32.0ALLENTOWN VORTAC117.5010W
PTWr320/34.7POTTSTOWN VORTAC116.5009W
MIPr146/35.0MILTON VORTAC109.2009W
SEGr117/35.9SELINSGROVE VOR/DME110.4008W

 
NDB name  Hdg/Dist  Freq  Var  ID
BELLGROVE073/21.332810WBZJ -... --.. .---

Airport Services

Runway Information

Runway 8/26

Dimensions: 1200 x 100 ft. / 366 x 30 m
Surface: turf
RUNWAY 8  RUNWAY 26
Traffic pattern: leftleft

Airport Ownership and Management from official FAA records

Ownership: Privately-owned
Owner: HAROLD L. MILLER
12 HOCK ST
CRESSONA, PA 17929
Phone 570-385-0370
Manager: HAROLD L. MILLER
12 HOCK ST
CRESSONA, PA 17929
Phone 570-385-0370

Airport Operational Statistics

Aircraft based on the field: 1
Single engine airplanes: 1
    

Instrument Procedures

There are no published instrument procedures at 2PA2.

Some nearby airports with instrument procedures:

KZER - Schuylkill County/Joe Zerbey Airport (13 nm NW)
KRDG - Reading Regional Airport/Carl A Spaatz Field (15 nm SE)
9D4 - Deck Airport (17 nm SW)
74N - Bendigo Airport (19 nm W)
08N - Keller Brothers Airport (20 nm SW)
 
Loc | Ops | Rwys | IFR | FBO | Links
Com | Nav | Svcs | Stats | Notes


 
Aerial photo
No photo
 
Airport distance calculator
Flying to Hillview Airport? Find the distance to fly.

From to 2PA2

Sunrise and sunset
Times for 22-Sep-2018
 Local
(UTC-4)
 Zulu
(UTC)
Morning civil twilight06:2610:26
Sunrise06:5310:53
Sunset19:0223:02
Evening civil twilight19:2923:29

Current date and time
Zulu (UTC)  23-Sep-2018 01:30:52
Local (UTC-4)  22-Sep-2018 21:30:52
 
METAR
KRDG 
16nm SE 
230054Z 35003KT 10SM CLR 16/14 A3020 RMK AO2 SLP230 T01560139
K22N 
21nm NE 
230115Z AUTO 00000KT 10SM CLR 15/10 A3023 RMK AO2
KMUI 
22nm SW 
230056Z AUTO 00000KT 10SM CLR 15/11 A3021 RMK AO2 SLP232 T01480106 $
KXLL 
30nm E 
230115Z AUTO 00000KT 10SM CLR A3023 RMK AO2
KLNS 
30nm S 
230053Z 32003KT 10SM CLR 15/13 A3021 RMK AO2 SLP230 T01500133
KABE 
31nm E 
230051Z 36003KT 10SM CLR 16/11 A3022 RMK AO2 SLP231 T01610111
TAF
KRDG 
16nm SE 
221725Z 2218/2318 36010KT P6SM SCT035 BKN200 TEMPO 2218/2222 BKN035 FM222300 01003KT P6SM OVC200 FM230900 36003KT P6SM BKN100 FM231200 VRB03KT 6SM -SHRA BKN030
NOTAMs
Click for the latest NOTAMs
NOTAMs are issued by the DoD/FAA and will open in a separate window not controlled by AirNav.

 

 
 

Would you like to see your business listed on this page?

 If your business provides an interesting product or service to pilots, flight crews, aircraft, or users of the Hillview Airport, you should consider listing it here.  To start the listing process, click on the button below
 
Add a business
 

Other Pages about Hillview Airport

Update a link
 
Copyright © AirNav, LLC. All rights reserved. Privacy Policy  Contact